Location: *
(33.8649°S, 62.1526°E)
Time: 03:12:33
(UTC+00:00)

Atlas Centaur 2 - Pass Details

Date: 17 January 2021
Orbit: 459 x 1309 km, 30.4° (Epoch: 27 February)

Event Time Altitude Azimuth Distance (km) Brightness Sun altitude
Rises 16:20:57 0° 277° (W) 2,485 5.4 -14.3°
Reaches altitude 10° 16:23:04 10° 282° (WNW) 1,632 4.3 -14.7°
Maximum altitude 16:26:37 50° 358° (N) 646 1.4 -15.3°
Enters shadow 16:28:13 30° 57° (ENE) 954 1.9 -15.5°
